Hovedside
METAR-TAF:

METAR-TAF

Lufthavner :

Uppsala, Sverige

breddegrad: 59-53N, lengdegrad: 017-36E, høyde over havet: 21 m

Gjeldene værobservasjon

Denne rapporten ble laget for 44 minutter siden, klokken 19:50 UTC
Vind 6 kt fra Vest-nordvest
Temperatur 8°C
Luftfuktighet 93%
Trykk 999 hPa
Sikt 10 km eller mer

METAR: ESCM 261950Z AUTO 30006KT 9999 OVC026/// 08/07 Q0999

Tid: 22:34 (20:34 UTC)


TAF: fraværende

Værobservasjoner og værvarsel for over 4000 flyplasser (METAR- og TAF-rapporter).

Tilgjengelige stasjoner er representert av de røde og gule prikkene på kartet.

Hold musepekeren over prikken for å se navnet på stasjonen.

Klikk så for å se værobservasjoner og -varsler.

For å forandre kartet kan du klikke på den grønne knappen med svart kryss for å zoome inn, på den grønne knappen med strek for å zoome ut, eller på de grønne pilene for å se tilstøtende kart.


METAR-TAF: